Regional Weather Roundup
Issued by NWS

Home | Current Version | Previous Version | Text Only | Print | Product List | Glossary On
Versions: 1 2 3 4 5 6 7 8 9 10 11 12 13 14 15 16 17 18 19 20 21 22 23 24 25 26 27 28 29 30 31 32 33 34 35 36 37 38 39 40 41 42 43 44 45 46 47 48 49 50
000
ASUS43 KLMK 110602
RWRKY
KENTUCKY REGIONAL WEATHER ROUNDUP
NATIONAL WEATHER SERVICE LOUISVILLE KY
100 AM EST THU FEB 11 2016

NOTE "FAIR" INDICATES FEW OR NO CLOUDS BELOW 12,000 FEET
WITH NO SIGNIFICANT WEATHER AND/OR OBSTRUCTIONS TO VISIBILITY.

KYZ001>023-026-027-061>063-070>075-110700-
WESTERN AND SOUTH CENTRAL KENTUCKY

CITY           SKY/WX    TMP DP  RH WIND       PRES   REMARKS
PADUCAH        CLOUDY    25  20  81 E5        30.15S WCI  19
HENDERSON      CLOUDY    21  18  86 CALM      30.19S
OWENSBORO      CLOUDY    22  18  85 CALM      30.20F
HOPKINSVILLE   CLOUDY    24  20  85 E5        30.16F WCI  19
BOWLING GREEN  CLOUDY    25  18  74 CALM      30.19F
GLASGOW        NOT AVBL
$$

KYZ024-025-028>034-038-045-046-053-110700-
NORTH CENTRAL KENTUCKY

CITY           SKY/WX    TMP DP  RH WIND       PRES   REMARKS
LOUISVILLE/SDF MOCLDY    21  12  68 W7        30.19R WCI  12
LOUISVILLE/LOU CLOUDY    21  12  68 W7        30.19S WCI  12
FORT KNOX      CLOUDY    20  15  79 W5        30.15F WCI  14
$$

KYZ035>037-039>044-047>052-055>060-089>105-110700-
NORTHEAST KENTUCKY

CITY           SKY/WX    TMP DP  RH WIND       PRES   REMARKS
LEXINGTON      CLOUDY    19  10  68 W5        30.15R WCI  12
COVINGTON      FLURRIES  14   5  67 W6        30.14S WCI   5
FRANKFORT      CLOUDY    19  10  68 CALM      30.16R
$$

KYZ054-064>069-076>088-106>120-110700-
SOUTHEAST KENTUCKY

CITY           SKY/WX    TMP DP  RH WIND       PRES   REMARKS
JACKSON        CLOUDY    17   8  67 SW3       30.11S
LONDON         MOCLDY    19   9  65 W5        30.14S WCI  12
SOMERSET       NOT AVBL
MIDDLESBORO    CLOUDY    21  11  67 CALM      30.15S
MONTICELLO     CLOUDY    23  17  78 W9G17     30.18S WCI  13
$$





USA.gov is the U.S. government's official web portal to all federal, state and local government web resources and services.